Time,TemperatureF,DewpointF,PressureIn,WindDirection,WindDirectionDegrees,WindSpeedMPH,WindSpeedGustMPH,Humidity,HourlyPrecipIn,Conditions,Clouds,dailyrainin,SoftwareType,DateUTC
2013-09-20 00:00:00,78.0,73.8,29.98,East,79,1.0,7.0,87,0.00,,,0.00,WeatherDisplay:10.37,2013-09-20 04:00:00,
2013-09-20 00:10:00,77.9,74.1,29.98,East,84,3.0,8.0,88,0.00,,,0.00,WeatherDisplay:10.37,2013-09-20 04:10:00,
2013-09-20 00:20:00,77.9,74.1,29.98,ENE,59,1.0,7.0,88,0.00,,,0.00,WeatherDisplay:10.37,2013-09-20 04:20:00,
2013-09-20 00:30:00,77.7,73.9,29.99,East,92,2.0,8.0,88,0.00,,,0.00,WeatherDisplay:10.37,2013-09-20 04:30:00,
2013-09-20 00:40:00,77.6,73.8,29.99,East,85,2.0,7.0,88,0.00,,,0.00,WeatherDisplay:10.37,2013-09-20 04:40:00,
2013-09-20 00:50:00,77.6,74.1,29.98,East,85,2.0,8.0,89,0.00,,,0.00,WeatherDisplay:10.37,2013-09-20 04:50:00,
2013-09-20 01:00:00,77.4,73.9,29.98,East,96,1.0,6.0,89,0.00,,,0.00,WeatherDisplay:10.37,2013-09-20 05:00:00,
2013-09-20 01:10:00,77.3,73.8,29.98,East,87,1.0,7.0,89,0.00,,,0.00,WeatherDisplay:10.37,2013-09-20 05:10:00,
2013-09-20 01:20:00,77.0,73.9,29.97,East,84,1.0,7.0,90,0.00,,,0.00,WeatherDisplay:10.37,2013-09-20 05:20:00,
2013-09-20 01:30:00,76.9,74.1,29.97,East,83,2.0,6.0,91,0.00,,,0.00,WeatherDisplay:10.37,2013-09-20 05:30:00,
2013-09-20 01:40:00,76.9,73.7,29.97,ENE,58,5.0,12.0,90,0.00,,,0.00,WeatherDisplay:10.37,2013-09-20 05:40:00,
2013-09-20 01:50:00,76.9,74.1,29.97,ENE,72,2.0,7.0,91,0.00,,,0.00,WeatherDisplay:10.37,2013-09-20 05:50:00,
2013-09-20 02:00:00,76.9,74.1,29.97,East,80,2.0,7.0,91,0.00,,,0.00,WeatherDisplay:10.37,2013-09-20 06:00:00,
2013-09-20 02:10:00,77.1,73.9,29.98,East,81,1.0,7.0,90,0.00,,,0.00,WeatherDisplay:10.37,2013-09-20 06:10:00,
2013-09-20 02:20:00,77.2,74.0,29.97,ENE,76,3.0,7.0,90,0.00,,,0.00,WeatherDisplay:10.37,2013-09-20 06:20:00,
2013-09-20 02:30:00,77.1,74.3,29.97,ENE,73,2.0,7.0,91,0.00,,,0.00,WeatherDisplay:10.37,2013-09-20 06:30:00,
2013-09-20 02:40:00,77.0,74.2,29.97,ENE,76,1.0,5.0,91,0.00,,,0.00,WeatherDisplay:10.37,2013-09-20 06:40:00,
2013-09-20 02:50:00,76.9,74.4,29.97,ENE,76,0.0,6.0,92,0.00,,,0.00,WeatherDisplay:10.37,2013-09-20 06:50:00,
2013-09-20 03:00:00,76.8,74.3,29.97,ENE,78,2.0,5.0,92,0.00,,,0.00,WeatherDisplay:10.37,2013-09-20 07:00:00,
2013-09-20 03:10:00,76.6,74.1,29.97,ENE,72,1.0,6.0,92,0.00,,,0.00,WeatherDisplay:10.37,2013-09-20 07:10:00,
2013-09-20 03:20:00,76.7,74.2,29.96,East,81,2.0,7.0,92,0.00,,,0.00,WeatherDisplay:10.37,2013-09-20 07:20:00,
2013-09-20 03:30:00,76.8,74.3,29.96,East,89,2.0,7.0,92,0.00,,,0.00,WeatherDisplay:10.37,2013-09-20 07:30:00,
2013-09-20 03:40:00,76.8,74.3,29.96,East,88,2.0,7.0,92,0.00,,,0.00,WeatherDisplay:10.37,2013-09-20 07:40:00,
2013-09-20 03:50:00,76.6,74.1,29.96,ENE,75,1.0,7.0,92,0.00,,,0.00,WeatherDisplay:10.37,2013-09-20 07:50:00,
2013-09-20 04:00:00,76.5,74.0,29.95,ENE,73,3.0,7.0,92,0.00,,,0.00,WeatherDisplay:10.37,2013-09-20 08:00:00,
2013-09-20 04:10:00,76.5,74.0,29.96,ENE,72,3.0,8.0,92,0.00,,,0.00,WeatherDisplay:10.37,2013-09-20 08:10:00,
2013-09-20 04:20:00,76.5,74.3,29.96,ENE,61,0.0,5.0,93,0.00,,,0.00,WeatherDisplay:10.37,2013-09-20 08:20:00,
2013-09-20 04:30:00,76.3,74.1,29.95,ENE,78,2.0,5.0,93,0.00,,,0.00,WeatherDisplay:10.37,2013-09-20 08:30:00,
2013-09-20 04:40:00,76.2,74.0,29.95,ENE,74,3.0,6.0,93,0.00,,,0.00,WeatherDisplay:10.37,2013-09-20 08:40:00,
2013-09-20 04:50:00,76.3,74.1,29.95,ENE,72,1.0,6.0,93,0.00,,,0.00,WeatherDisplay:10.37,2013-09-20 08:50:00,
2013-09-20 05:00:00,76.2,74.3,29.95,NNE,20,1.0,4.0,94,0.00,,,0.00,WeatherDisplay:10.37,2013-09-20 09:00:00,
2013-09-20 05:10:00,76.0,74.1,29.96,NNE,19,2.0,5.0,94,0.00,,,0.00,WeatherDisplay:10.37,2013-09-20 09:10:00,
2013-09-20 05:20:00,75.9,74.0,29.96,NNE,18,2.0,6.0,94,0.00,,,0.00,WeatherDisplay:10.37,2013-09-20 09:20:00,
2013-09-20 05:30:00,75.7,73.9,29.96,North,11,0.0,4.0,94,0.00,,,0.00,WeatherDisplay:10.37,2013-09-20 09:30:00,
2013-09-20 05:40:00,75.7,74.2,29.96,NE,43,1.0,3.0,95,0.00,,,0.00,WeatherDisplay:10.37,2013-09-20 09:40:00,
2013-09-20 05:50:00,75.5,73.7,29.95,ENE,74,1.0,5.0,94,0.00,,,0.00,WeatherDisplay:10.37,2013-09-20 09:50:00,
2013-09-20 06:00:00,75.5,73.7,29.95,ENE,68,1.0,4.0,94,0.00,,,0.00,WeatherDisplay:10.37,2013-09-20 10:00:00,
2013-09-20 06:10:00,75.6,73.8,29.95,ENE,73,2.0,5.0,94,0.00,,,0.00,WeatherDisplay:10.37,2013-09-20 10:10:00,
2013-09-20 06:20:00,75.8,73.6,29.96,NE,42,2.0,5.0,93,0.00,,,0.00,WeatherDisplay:10.37,2013-09-20 10:20:00,
2013-09-20 06:30:00,76.0,73.8,29.97,NNE,17,1.0,5.0,93,0.00,,,0.00,WeatherDisplay:10.37,2013-09-20 10:30:00,
2013-09-20 06:40:00,75.7,73.6,29.97,NNE,30,3.0,6.0,93,0.00,,,0.00,WeatherDisplay:10.37,2013-09-20 10:40:00,
2013-09-20 06:50:00,75.6,73.4,29.97,NNE,32,0.0,4.0,93,0.00,,,0.00,WeatherDisplay:10.37,2013-09-20 10:50:00,
2013-09-20 07:00:00,75.4,73.6,29.96,NNE,27,0.0,5.0,94,0.00,,,0.00,WeatherDisplay:10.37,2013-09-20 11:00:00,
2013-09-20 07:10:00,75.3,73.5,29.96,NE,44,0.0,3.0,94,0.00,,,0.00,WeatherDisplay:10.37,2013-09-20 11:10:00,
2013-09-20 07:20:00,75.3,73.4,29.97,NE,46,0.0,3.0,94,0.00,,,0.00,WeatherDisplay:10.37,2013-09-20 11:20:00,
2013-09-20 07:30:00,75.2,73.4,29.97,NE,46,0.0,2.0,94,0.00,,,0.00,WeatherDisplay:10.37,2013-09-20 11:30:00,
2013-09-20 07:40:00,75.4,73.6,29.97,East,82,1.0,6.0,94,0.00,,,0.00,WeatherDisplay:10.37,2013-09-20 11:40:00,
2013-09-20 07:50:00,75.8,73.3,29.97,ENE,76,1.0,6.0,92,0.00,,,0.00,WeatherDisplay:10.37,2013-09-20 11:50:00,
2013-09-20 08:00:00,76.2,73.4,29.97,ENE,62,5.0,8.0,91,0.00,,,0.00,WeatherDisplay:10.37,2013-09-20 12:00:00,
2013-09-20 08:10:00,76.6,73.4,29.97,ENE,71,3.0,9.0,90,0.00,,,0.00,WeatherDisplay:10.37,2013-09-20 12:10:00,
2013-09-20 08:20:00,77.0,73.5,29.97,East,86,0.0,7.0,89,0.00,,,0.00,WeatherDisplay:10.37,2013-09-20 12:20:00,
2013-09-20 08:30:00,77.3,73.8,29.97,ENE,77,0.0,9.0,89,0.00,,,0.00,WeatherDisplay:10.37,2013-09-20 12:30:00,
2013-09-20 08:40:00,77.7,73.9,29.98,ENE,64,2.0,7.0,88,0.00,,,0.00,WeatherDisplay:10.37,2013-09-20 12:40:00,
2013-09-20 08:50:00,77.7,73.9,29.98,ENE,65,1.0,8.0,88,0.00,,,0.00,WeatherDisplay:10.37,2013-09-20 12:50:00,
2013-09-20 09:00:00,78.0,74.2,29.98,ENE,77,5.0,8.0,88,0.00,,,0.00,WeatherDisplay:10.37,2013-09-20 13:00:00,
2013-09-20 09:10:00,78.2,73.7,29.98,ENE,68,3.0,10.0,86,0.00,,,0.00,WeatherDisplay:10.37,2013-09-20 13:10:00,
2013-09-20 09:20:00,78.7,73.8,29.99,ENE,65,2.0,9.0,85,0.00,,,0.00,WeatherDisplay:10.37,2013-09-20 13:20:00,
2013-09-20 09:30:00,79.4,73.8,29.99,ENE,65,5.0,9.0,83,0.00,CLR,,0.00,WeatherDisplay:10.37,2013-09-20 13:30:00,
2013-09-20 09:40:00,79.7,73.7,29.99,NE,48,5.0,9.0,82,0.00,CLR,,0.00,WeatherDisplay:10.37,2013-09-20 13:40:00,
2013-09-20 09:50:00,80.2,74.2,29.99,ENE,78,3.0,12.0,82,0.00,CLR,,0.00,WeatherDisplay:10.37,2013-09-20 13:50:00,
2013-09-20 10:00:00,80.9,73.8,29.99,East,88,5.0,8.0,79,0.00,CLR,,0.00,WeatherDisplay:10.37,2013-09-20 14:00:00,
2013-09-20 10:10:00,80.9,73.4,29.99,East,80,6.0,12.0,78,0.00,CLR,,0.00,WeatherDisplay:10.37,2013-09-20 14:10:00,
2013-09-20 10:20:00,81.2,73.3,30.00,ENE,61,5.0,10.0,77,0.00,CLR,,0.00,WeatherDisplay:10.37,2013-09-20 14:20:00,
2013-09-20 10:30:00,81.7,73.8,30.00,ENE,62,2.0,9.0,77,0.00,CLR,,0.00,WeatherDisplay:10.37,2013-09-20 14:30:00,
2013-09-20 10:40:00,82.3,73.6,30.00,ENE,72,5.0,9.0,75,0.00,CLR,,0.00,WeatherDisplay:10.37,2013-09-20 14:40:00,
2013-09-20 10:50:00,82.3,73.2,29.99,East,86,6.0,10.0,74,0.00,CLR,,0.00,WeatherDisplay:10.37,2013-09-20 14:50:00,
2013-09-20 11:00:00,83.3,73.7,29.99,East,93,3.0,10.0,73,0.00,CLR,,0.00,WeatherDisplay:10.37,2013-09-20 15:00:00,
2013-09-20 11:10:00,83.2,73.2,29.99,ENE,70,3.0,12.0,72,0.00,CLR,,0.00,WeatherDisplay:10.37,2013-09-20 15:10:00,
2013-09-20 11:20:00,83.9,73.1,29.99,East,85,3.0,10.0,70,0.00,CLR,,0.00,WeatherDisplay:10.37,2013-09-20 15:20:00,
2013-09-20 11:30:00,83.7,72.5,29.99,ENE,69,2.0,8.0,69,0.00,CLR,,0.00,WeatherDisplay:10.37,2013-09-20 15:30:00,
2013-09-20 11:40:00,84.2,72.0,29.99,ENE,70,2.0,12.0,67,0.00,CLR,,0.00,WeatherDisplay:10.37,2013-09-20 15:40:00,
2013-09-20 11:50:00,84.4,71.8,29.98,ENE,75,3.0,10.0,66,0.00,CLR,,0.00,WeatherDisplay:10.37,2013-09-20 15:50:00,
2013-09-20 12:00:00,84.9,71.8,29.98,ENE,78,5.0,12.0,65,0.00,CLR,,0.00,WeatherDisplay:10.37,2013-09-20 16:00:00,
2013-09-20 12:10:00,85.1,72.5,29.98,East,84,2.0,12.0,66,0.00,CLR,,0.00,WeatherDisplay:10.37,2013-09-20 16:10:00,
2013-09-20 12:20:00,85.2,71.2,29.97,NE,56,5.0,7.0,63,0.00,CLR,,0.00,WeatherDisplay:10.37,2013-09-20 16:20:00,
2013-09-20 12:30:00,86.1,72.9,29.97,NE,49,5.0,9.0,65,0.00,CLR,,0.00,WeatherDisplay:10.37,2013-09-20 16:30:00,
2013-09-20 12:40:00,85.5,72.8,29.97,NE,47,5.0,9.0,66,0.00,CLR,,0.00,WeatherDisplay:10.37,2013-09-20 16:40:00,
2013-09-20 12:50:00,85.8,72.6,29.96,NE,48,6.0,9.0,65,0.00,CLR,,0.00,WeatherDisplay:10.37,2013-09-20 16:50:00,
2013-09-20 13:00:00,86.1,73.4,29.96,East,79,5.0,15.0,66,0.00,CLR,,0.00,WeatherDisplay:10.37,2013-09-20 17:00:00,
2013-09-20 13:10:00,86.8,72.7,29.95,ENE,77,5.0,12.0,63,0.00,CLR,,0.00,WeatherDisplay:10.37,2013-09-20 17:10:00,
2013-09-20 13:20:00,86.4,74.2,29.95,ENE,59,5.0,9.0,67,0.00,CLR,,0.00,WeatherDisplay:10.37,2013-09-20 17:20:00,
2013-09-20 13:30:00,86.3,73.6,29.94,ENE,59,5.0,12.0,66,0.00,CLR,,0.00,WeatherDisplay:10.37,2013-09-20 17:30:00,
2013-09-20 13:40:00,86.4,72.3,29.94,ENE,65,3.0,12.0,63,0.00,CLR,,0.00,WeatherDisplay:10.37,2013-09-20 17:40:00,
2013-09-20 13:50:00,86.6,72.0,29.93,NE,56,6.0,9.0,62,0.00,CLR,,0.00,WeatherDisplay:10.37,2013-09-20 17:50:00,
2013-09-20 14:00:00,86.5,72.9,29.93,NE,51,5.0,10.0,64,0.00,CLR,,0.00,WeatherDisplay:10.37,2013-09-20 18:00:00,
2013-09-20 14:10:00,87.2,72.6,29.92,ENE,60,3.0,10.0,62,0.00,CLR,,0.00,WeatherDisplay:10.37,2013-09-20 18:10:00,
2013-09-20 14:20:00,88.0,72.9,29.92,ENE,74,5.0,12.0,61,0.00,CLR,,0.00,WeatherDisplay:10.37,2013-09-20 18:20:00,
2013-09-20 14:30:00,88.0,72.9,29.92,ENE,74,2.0,10.0,61,0.00,CLR,,0.00,WeatherDisplay:10.37,2013-09-20 18:30:00,
2013-09-20 14:40:00,87.8,72.7,29.92,ENE,78,7.0,10.0,61,0.00,CLR,,0.00,WeatherDisplay:10.37,2013-09-20 18:40:00,
2013-09-20 14:50:00,88.6,72.5,29.91,ESE,106,3.0,9.0,59,0.00,CLR,,0.00,WeatherDisplay:10.37,2013-09-20 18:50:00,
2013-09-20 15:00:00,88.1,72.0,29.91,East,84,5.0,10.0,59,0.00,CLR,,0.00,WeatherDisplay:10.37,2013-09-20 19:00:00,
2013-09-20 15:10:00,88.0,71.4,29.91,East,80,7.0,10.0,58,0.00,CLR,,0.00,WeatherDisplay:10.37,2013-09-20 19:10:00,
2013-09-20 15:20:00,88.2,73.1,29.90,ENE,75,5.0,9.0,61,0.00,CLR,,0.00,WeatherDisplay:10.37,2013-09-20 19:20:00,
2013-09-20 15:30:00,88.5,71.9,29.90,ENE,68,2.0,9.0,58,0.00,CLR,,0.00,WeatherDisplay:10.37,2013-09-20 19:30:00,
2013-09-20 15:40:00,88.2,72.0,29.90,ENE,68,3.0,8.0,59,0.00,CLR,,0.00,WeatherDisplay:10.37,2013-09-20 19:40:00,
2013-09-20 15:50:00,87.3,72.2,29.90,East,82,5.0,10.0,61,0.00,CLR,,0.00,WeatherDisplay:10.37,2013-09-20 19:50:00,
2013-09-20 16:00:00,88.5,71.8,29.90,East,86,5.0,8.0,58,0.00,CLR,,0.00,WeatherDisplay:10.37,2013-09-20 20:00:00,
2013-09-20 16:10:00,88.2,73.1,29.89,East,89,2.0,9.0,61,0.00,CLR,,0.00,WeatherDisplay:10.37,2013-09-20 20:10:00,
2013-09-20 16:20:00,86.6,72.1,29.89,East,81,2.0,9.0,62,0.00,CLR,,0.00,WeatherDisplay:10.37,2013-09-20 20:20:00,
2013-09-20 16:30:00,88.3,74.1,29.89,East,85,5.0,10.0,63,0.00,CLR,,0.00,WeatherDisplay:10.37,2013-09-20 20:30:00,
2013-09-20 16:40:00,86.5,71.9,29.89,ENE,74,2.0,10.0,62,0.00,CLR,,0.00,WeatherDisplay:10.37,2013-09-20 20:40:00,
2013-09-20 16:50:00,87.1,72.1,29.88,East,79,6.0,9.0,61,0.00,CLR,,0.00,WeatherDisplay:10.37,2013-09-20 20:50:00,
2013-09-20 17:00:00,88.1,72.9,29.88,East,88,3.0,9.0,61,0.00,CLR,,0.00,WeatherDisplay:10.37,2013-09-20 21:00:00,
2013-09-20 17:10:00,87.8,72.2,29.88,East,100,2.0,8.0,60,0.00,CLR,,0.00,WeatherDisplay:10.37,2013-09-20 21:10:00,
2013-09-20 17:20:00,86.9,72.3,29.88,ENE,76,3.0,9.0,62,0.00,CLR,,0.00,WeatherDisplay:10.37,2013-09-20 21:20:00,
2013-09-20 17:30:00,86.1,71.1,29.88,East,84,3.0,9.0,61,0.00,CLR,,0.00,WeatherDisplay:10.37,2013-09-20 21:30:00,
2013-09-20 17:40:00,85.8,72.2,29.88,East,87,2.0,7.0,64,0.00,CLR,,0.00,WeatherDisplay:10.37,2013-09-20 21:40:00,
2013-09-20 17:50:00,85.5,71.0,29.88,ENE,73,3.0,8.0,62,0.00,CLR,,0.00,WeatherDisplay:10.37,2013-09-20 21:50:00,
2013-09-20 18:00:00,85.3,70.8,29.88,ENE,72,5.0,12.0,62,0.00,CLR,,0.00,WeatherDisplay:10.37,2013-09-20 22:00:00,
2013-09-20 18:10:00,85.2,71.6,29.88,ENE,72,5.0,9.0,64,0.00,CLR,,0.00,WeatherDisplay:10.37,2013-09-20 22:10:00,
2013-09-20 18:20:00,85.1,70.1,29.88,East,88,3.0,9.0,61,0.00,CLR,,0.00,WeatherDisplay:10.37,2013-09-20 22:20:00,
2013-09-20 18:30:00,84.8,70.8,29.88,East,89,3.0,9.0,63,0.00,CLR,,0.00,WeatherDisplay:10.37,2013-09-20 22:30:00,
2013-09-20 18:40:00,84.5,70.1,29.87,East,97,3.0,9.0,62,0.00,CLR,,0.00,WeatherDisplay:10.37,2013-09-20 22:40:00,
2013-09-20 18:50:00,84.3,69.4,29.87,East,94,2.0,8.0,61,0.00,CLR,,0.00,WeatherDisplay:10.37,2013-09-20 22:50:00,
2013-09-20 19:00:00,84.0,70.1,29.87,East,92,2.0,8.0,63,0.00,CLR,,0.00,WeatherDisplay:10.37,2013-09-20 23:00:00,
2013-09-20 19:10:00,83.7,70.2,29.87,East,88,1.0,9.0,64,0.00,CLR,,0.00,WeatherDisplay:10.37,2013-09-20 23:10:00,
2013-09-20 19:20:00,83.4,70.4,29.87,ESE,106,6.0,12.0,65,0.00,CLR,,0.00,WeatherDisplay:10.37,2013-09-20 23:20:00,
2013-09-20 19:30:00,83.3,70.8,29.87,East,99,2.0,10.0,66,0.00,CLR,,0.00,WeatherDisplay:10.37,2013-09-20 23:30:00,
2013-09-20 19:40:00,83.0,70.9,29.88,East,95,3.0,8.0,67,0.00,CLR,,0.00,WeatherDisplay:10.37,2013-09-20 23:40:00,
2013-09-20 19:50:00,82.6,71.0,29.88,East,81,3.0,9.0,68,0.00,CLR,,0.00,WeatherDisplay:10.37,2013-09-20 23:50:00,
2013-09-20 20:00:00,82.3,70.7,29.88,East,86,2.0,6.0,68,0.00,CLR,,0.00,WeatherDisplay:10.37,2013-09-21 00:00:00,
2013-09-20 20:10:00,82.1,70.5,29.88,East,90,2.0,7.0,68,0.00,CLR,,0.00,WeatherDisplay:10.37,2013-09-21 00:10:00,
2013-09-20 20:20:00,82.0,70.8,29.88,East,85,2.0,10.0,69,0.00,CLR,,0.00,WeatherDisplay:10.37,2013-09-21 00:20:00,
2013-09-20 20:30:00,81.8,70.6,29.88,East,91,2.0,8.0,69,0.00,CLR,,0.00,WeatherDisplay:10.37,2013-09-21 00:30:00,
2013-09-20 20:40:00,81.7,70.5,29.88,East,100,2.0,9.0,69,0.00,CLR,,0.00,WeatherDisplay:10.37,2013-09-21 00:40:00,
2013-09-20 20:50:00,81.4,70.2,29.89,ESE,105,3.0,7.0,69,0.00,CLR,,0.00,WeatherDisplay:10.37,2013-09-21 00:50:00,
2013-09-20 21:00:00,81.3,70.5,29.89,East,95,2.0,8.0,70,0.00,CLR,,0.00,WeatherDisplay:10.37,2013-09-21 01:00:00,
2013-09-20 21:10:00,81.0,70.3,29.89,East,89,2.0,9.0,70,0.00,CLR,,0.00,WeatherDisplay:10.37,2013-09-21 01:10:00,
2013-09-20 21:20:00,80.7,70.9,29.90,East,82,2.0,8.0,72,0.00,CLR,,0.00,WeatherDisplay:10.37,2013-09-21 01:20:00,
2013-09-20 21:40:00,80.5,70.6,29.91,ENE,73,3.0,8.0,72,0.00,CLR,,0.00,WeatherDisplay:10.37,2013-09-21 01:40:00,
2013-09-20 21:50:00,80.5,70.2,29.91,East,79,5.0,9.0,71,0.00,CLR,,0.00,WeatherDisplay:10.37,2013-09-21 01:50:00,
2013-09-20 22:00:00,80.3,70.0,29.91,East,80,2.0,7.0,71,0.00,CLR,,0.00,WeatherDisplay:10.37,2013-09-21 02:00:00,
2013-09-20 22:10:00,80.1,69.8,29.91,East,90,2.0,8.0,71,0.00,CLR,,0.00,WeatherDisplay:10.37,2013-09-21 02:10:00,
2013-09-20 22:20:00,80.0,70.2,29.91,East,84,5.0,8.0,72,0.00,CLR,,0.00,WeatherDisplay:10.37,2013-09-21 02:20:00,
2013-09-20 22:30:00,79.7,69.5,29.91,East,84,2.0,9.0,71,0.00,CLR,,0.00,WeatherDisplay:10.37,2013-09-21 02:30:00,
2013-09-20 22:40:00,79.4,69.6,29.91,East,81,2.0,7.0,72,0.00,CLR,,0.00,WeatherDisplay:10.37,2013-09-21 02:40:00,
2013-09-20 22:50:00,79.3,69.9,29.92,ENE,73,1.0,6.0,73,0.00,CLR,,0.00,WeatherDisplay:10.37,2013-09-21 02:50:00,
2013-09-20 23:00:00,79.4,69.6,29.92,East,81,2.0,5.0,72,0.00,CLR,,0.00,WeatherDisplay:10.37,2013-09-21 03:00:00,
2013-09-20 23:10:00,79.4,69.6,29.92,ENE,74,2.0,8.0,72,0.00,CLR,,0.00,WeatherDisplay:10.37,2013-09-21 03:10:00,
2013-09-20 23:20:00,79.2,70.1,29.92,East,86,2.0,6.0,74,0.00,CLR,,0.00,WeatherDisplay:10.37,2013-09-21 03:20:00,
2013-09-20 23:30:00,78.9,69.9,29.92,East,87,2.0,7.0,74,0.00,CLR,,0.00,WeatherDisplay:10.37,2013-09-21 03:30:00,
2013-09-20 23:40:00,78.8,69.8,29.92,East,98,2.0,9.0,74,0.00,CLR,,0.00,WeatherDisplay:10.37,2013-09-21 03:40:00,
2013-09-20 23:50:00,78.6,70.4,29.92,East,86,5.0,8.0,76,0.00,CLR,,0.00,WeatherDisplay:10.37,2013-09-21 03:50:00,